SL-12 R/B(2), 37140

Orbit data source: Space-Track

SL-12 R/B(2), 37140 is space debris in MEO originally from a launch on Thu, 02 Sep 2010 UTC launched from the Tyuratam Missile And Space Complex (TTMTR). Debris objects in space refer to the collection of defunct objects orbiting the Earth. Examples of debris include non-operational satellites, rocket bodies, and fragments generated from explosions, collisions, or faulty payload assembly.

Loading next visibility...
Identifier
37140, 2010-041D
Orbit
MEO
Country
Flag of CISCIS
Related business
Manufacturer
RKKE
Mission
Spacecraft
Bus & Motor
BLOK DM2, 11D58M
Mass
2,440 kg wet, 2,440 kg dry
Launch date (UTC)
2010-09-02 (16 years ago)
Launch vehicle
Unknown
Launch site
Tyuratam Missile And Space Complex (TTMTR)
Object type
Payload
Rocket body
Debris
Shape & HBR
Cyl, 3.5 m
Radar Cross Section
26.008 m², Large (>1 m²)

Expand to show TLE details & history
Last TLE update: 2 days ago

TLE from 2 days ago
0 SL-12 R/B(2)
1 37140U 10041D   26126.15538478  .00000031  00000-0  00000-0 0  9993
2 37140  63.9121 190.9323 0041333 194.2648 242.4380  2.13454024122153
Epoch: 2026-05-06T03:43Z
TLE epoch observation values (Epoch: 2026-05-06T03:43:45.244Z)
Latitude
60.77304°
Longitude
-28.16142°
Altitude
19,160.789 km
Speed
3.948 km/s
True Right ascension
16h 47m 11s
True Declination
60° 43' 56"
Sunlit
Object was in daylight at epoch
Visualization orbit readout
Latitude
Unknown
Longitude
Unknown
Altitude
Unknown
Speed
Unknown
Apparent Right ascension
Unknown
Apparent Declination
Unknown
Sunlit
N/A
Visualization observer readout
Local Sidereal Time
06:15:59
Azimuth
Unknown
Elevation
Unknown
Doppler factor
Unknown
Orbital elements
Apogee altitude
19,206.803 km
Perigee altitude
18,996.173 km
Semi-major axis
25,479.625 km
Eccentricity
0.00413
Inclination
63.9121°
RAAN
190.9323°
Arg. of periapsis
194.2648°
True anomaly
242.01912°
Mean anomaly
242.438°
Eccentric anomaly
242.22846°
Mean motion
0.53365 °/min
Orbital period
674.6 mins
BSTAR
0
Loading maneuver chart data...
Computing Atmospheric mass density...
Loading historical data...
Loading historical data...
Loading historical data...
Loading historical data...
Loading historical data...
Loading historical data...
Loading historical data...

Documentation

Showing up to 5 results
|